Year,Month,Day,Hour,Minute,Value (Times are PST for windspeed in km/hr)
2011,07,07,00,00,0.30
2011,07,07,00,01,0.20
2011,07,07,00,02,0.00
2011,07,07,00,03,0.10
2011,07,07,00,04,0.50
2011,07,07,00,05,2.00
2011,07,07,00,06,2.50
2011,07,07,00,07,0.50
2011,07,07,00,08,0.50
2011,07,07,00,09,3.10
2011,07,07,00,10,0.40
2011,07,07,00,11,0.00
2011,07,07,00,12,0.00
2011,07,07,00,13,0.00
2011,07,07,00,14,0.00
2011,07,07,00,15,0.00
2011,07,07,00,16,0.00
2011,07,07,00,17,0.00
2011,07,07,00,18,0.00
2011,07,07,00,19,0.00
2011,07,07,00,20,0.00
2011,07,07,00,21,0.00
2011,07,07,00,22,0.00
2011,07,07,00,23,0.00
2011,07,07,00,24,0.00
2011,07,07,00,25,0.00
2011,07,07,00,26,0.00
2011,07,07,00,27,0.00
2011,07,07,00,28,0.00
2011,07,07,00,29,0.00
2011,07,07,00,30,0.00
2011,07,07,00,31,0.30
2011,07,07,00,32,1.00
2011,07,07,00,33,3.00
2011,07,07,00,34,1.40
2011,07,07,00,35,0.00
2011,07,07,00,36,0.30
2011,07,07,00,37,3.20
2011,07,07,00,38,4.10
2011,07,07,00,39,3.60
2011,07,07,00,40,2.60
2011,07,07,00,41,1.10
2011,07,07,00,42,0.70
2011,07,07,00,43,2.20
2011,07,07,00,44,1.80
2011,07,07,00,45,0.60
2011,07,07,00,46,1.70
2011,07,07,00,47,0.30
2011,07,07,00,48,0.00
2011,07,07,00,49,0.10
2011,07,07,00,50,1.80
2011,07,07,00,51,1.10
2011,07,07,00,52,1.70
2011,07,07,00,53,2.80
2011,07,07,00,54,2.60
2011,07,07,00,55,2.70
2011,07,07,00,56,3.80
2011,07,07,00,57,0.60
2011,07,07,00,58,2.40
2011,07,07,00,59,2.10
2011,07,07,01,00,1.60
2011,07,07,01,01,5.00
2011,07,07,01,02,1.90
2011,07,07,01,03,2.20
2011,07,07,01,04,1.50
2011,07,07,01,05,2.30
2011,07,07,01,06,2.70
2011,07,07,01,07,4.60
2011,07,07,01,08,2.70
2011,07,07,01,09,4.20
2011,07,07,01,10,7.10
2011,07,07,01,11,3.90
2011,07,07,01,12,2.20
2011,07,07,01,13,2.90
2011,07,07,01,14,5.00
2011,07,07,01,15,2.60
2011,07,07,01,16,1.90
2011,07,07,01,17,2.30
2011,07,07,01,18,4.50
2011,07,07,01,19,4.70
2011,07,07,01,20,2.60
2011,07,07,01,21,2.80
2011,07,07,01,22,3.90
2011,07,07,01,23,5.30
2011,07,07,01,24,6.80
2011,07,07,01,25,4.20
2011,07,07,01,26,3.10
2011,07,07,01,27,1.70
2011,07,07,01,28,3.10
2011,07,07,01,29,3.50
2011,07,07,01,30,5.60
2011,07,07,01,31,2.50
2011,07,07,01,32,4.30
2011,07,07,01,33,4.40
2011,07,07,01,34,4.70
2011,07,07,01,35,4.20
2011,07,07,01,36,4.20
2011,07,07,01,37,1.90
2011,07,07,01,38,3.90
2011,07,07,01,39,6.20
2011,07,07,01,40,4.60
2011,07,07,01,41,6.00
2011,07,07,01,42,5.30
2011,07,07,01,43,6.10
2011,07,07,01,44,6.00
2011,07,07,01,45,4.30
2011,07,07,01,46,4.60
2011,07,07,01,47,7.20
2011,07,07,01,48,3.10
2011,07,07,01,49,5.10
2011,07,07,01,50,3.20
2011,07,07,01,51,4.10
2011,07,07,01,52,3.20
2011,07,07,01,53,4.00
2011,07,07,01,54,2.70
2011,07,07,01,55,1.50
2011,07,07,01,56,4.40
2011,07,07,01,57,5.10
2011,07,07,01,58,5.40
2011,07,07,01,59,1.80
2011,07,07,02,00,2.60
2011,07,07,02,01,6.20
2011,07,07,02,02,1.70
2011,07,07,02,03,2.20
2011,07,07,02,04,4.80
2011,07,07,02,05,4.90
2011,07,07,02,06,4.40
2011,07,07,02,07,4.60
2011,07,07,02,08,5.70
2011,07,07,02,09,5.60
2011,07,07,02,10,3.50
2011,07,07,02,11,4.20
2011,07,07,02,12,6.40
2011,07,07,02,13,6.00
2011,07,07,02,14,5.10
2011,07,07,02,15,6.30
2011,07,07,02,16,6.10
2011,07,07,02,17,6.40
2011,07,07,02,18,2.80
2011,07,07,02,19,6.20
2011,07,07,02,20,7.30
2011,07,07,02,21,7.60
2011,07,07,02,22,3.60
2011,07,07,02,23,6.00
2011,07,07,02,24,5.30
2011,07,07,02,25,4.80
2011,07,07,02,26,8.20
2011,07,07,02,27,5.90
2011,07,07,02,28,7.20
2011,07,07,02,29,4.70
2011,07,07,02,30,8.50
2011,07,07,02,31,5.60
2011,07,07,02,32,4.00
2011,07,07,02,33,2.50
2011,07,07,02,34,2.60
2011,07,07,02,35,3.50
2011,07,07,02,36,5.00
2011,07,07,02,37,4.80
2011,07,07,02,38,7.90
2011,07,07,02,39,5.70
2011,07,07,02,40,4.90
2011,07,07,02,41,10.40
2011,07,07,02,42,7.40
2011,07,07,02,43,5.80
2011,07,07,02,44,2.50
2011,07,07,02,45,5.60
2011,07,07,02,46,3.40
2011,07,07,02,47,5.90
2011,07,07,02,48,4.50
2011,07,07,02,49,5.00
2011,07,07,02,50,2.10
2011,07,07,02,51,3.00
2011,07,07,02,52,4.30
2011,07,07,02,53,3.50
2011,07,07,02,54,3.50
2011,07,07,02,55,5.30
2011,07,07,02,56,5.10
2011,07,07,02,57,3.20
2011,07,07,02,58,2.70
2011,07,07,02,59,5.10
2011,07,07,03,00,4.20
2011,07,07,03,01,2.30
2011,07,07,03,02,3.20
2011,07,07,03,03,7.60
2011,07,07,03,04,5.80
2011,07,07,03,05,4.10
2011,07,07,03,06,4.00
2011,07,07,03,07,4.70
2011,07,07,03,08,4.80
2011,07,07,03,09,7.40
2011,07,07,03,10,5.60
2011,07,07,03,11,2.90
2011,07,07,03,12,0.10
2011,07,07,03,13,2.50
2011,07,07,03,14,6.00
2011,07,07,03,15,4.00
2011,07,07,03,16,1.40
2011,07,07,03,17,3.70
2011,07,07,03,18,3.90
2011,07,07,03,19,1.30
2011,07,07,03,20,2.90
2011,07,07,03,21,2.20
2011,07,07,03,22,0.80
2011,07,07,03,23,3.90
2011,07,07,03,24,1.20
2011,07,07,03,25,3.10
2011,07,07,03,26,0.50
2011,07,07,03,27,2.10
2011,07,07,03,28,1.20
2011,07,07,03,29,2.20
2011,07,07,03,30,3.00
2011,07,07,03,31,5.40
2011,07,07,03,32,4.00
2011,07,07,03,33,1.10
2011,07,07,03,34,4.80
2011,07,07,03,35,4.10
2011,07,07,03,36,3.30
2011,07,07,03,37,6.60
2011,07,07,03,38,5.10
2011,07,07,03,39,3.60
2011,07,07,03,40,4.30
2011,07,07,03,41,4.00
2011,07,07,03,42,4.10
2011,07,07,03,43,4.90
2011,07,07,03,44,5.60
2011,07,07,03,45,4.40
2011,07,07,03,46,7.00
2011,07,07,03,47,3.00
2011,07,07,03,48,3.40
2011,07,07,03,49,5.10
2011,07,07,03,50,2.90
2011,07,07,03,51,4.10
2011,07,07,03,52,1.10
2011,07,07,03,53,1.90
2011,07,07,03,54,4.70
2011,07,07,03,55,7.20
2011,07,07,03,56,7.70
2011,07,07,03,57,1.90
2011,07,07,03,58,2.70
2011,07,07,03,59,6.80
2011,07,07,04,00,6.00
2011,07,07,04,01,4.50
2011,07,07,04,02,3.10
2011,07,07,04,03,0.30
2011,07,07,04,04,1.50
2011,07,07,04,05,2.70
2011,07,07,04,06,4.00
2011,07,07,04,07,1.80
2011,07,07,04,08,4.50
2011,07,07,04,09,3.50
2011,07,07,04,10,5.40
2011,07,07,04,11,7.30
2011,07,07,04,12,5.30
2011,07,07,04,13,6.80
2011,07,07,04,14,4.50
2011,07,07,04,15,4.50
2011,07,07,04,16,4.30
2011,07,07,04,17,5.70
2011,07,07,04,18,2.30
2011,07,07,04,19,8.70
2011,07,07,04,20,4.30
2011,07,07,04,21,6.00
2011,07,07,04,22,4.70
2011,07,07,04,23,4.20
2011,07,07,04,24,2.70
2011,07,07,04,25,5.90
2011,07,07,04,26,3.20
2011,07,07,04,27,3.30
2011,07,07,04,28,3.40
2011,07,07,04,29,6.60
2011,07,07,04,30,7.10
2011,07,07,04,31,5.10
2011,07,07,04,32,7.40
2011,07,07,04,33,5.30
2011,07,07,04,34,6.50
2011,07,07,04,35,8.50
2011,07,07,04,36,9.70
2011,07,07,04,37,7.50
2011,07,07,04,38,5.00
2011,07,07,04,39,3.60
2011,07,07,04,40,8.50
2011,07,07,04,41,5.40
2011,07,07,04,42,3.50
2011,07,07,04,43,6.00
2011,07,07,04,44,5.20
2011,07,07,04,45,7.80
2011,07,07,04,46,3.60
2011,07,07,04,47,9.00
2011,07,07,04,48,8.60
2011,07,07,04,49,10.70
2011,07,07,04,50,7.40
2011,07,07,04,51,7.00
2011,07,07,04,52,9.90
2011,07,07,04,53,8.00
2011,07,07,04,54,7.50
2011,07,07,04,55,7.10
2011,07,07,04,56,5.30
2011,07,07,04,57,4.70
2011,07,07,04,58,5.80
2011,07,07,04,59,8.60
2011,07,07,05,00,9.30
2011,07,07,05,01,5.10
2011,07,07,05,02,7.50
2011,07,07,05,03,8.60
2011,07,07,05,04,7.60
2011,07,07,05,05,8.00
2011,07,07,05,06,8.30
2011,07,07,05,07,6.60
2011,07,07,05,08,4.80
2011,07,07,05,09,7.30
2011,07,07,05,10,7.10
2011,07,07,05,11,5.90
2011,07,07,05,12,5.00
2011,07,07,05,13,5.60
2011,07,07,05,14,6.10
2011,07,07,05,15,7.30
2011,07,07,05,16,7.20
2011,07,07,05,17,9.30
2011,07,07,05,18,6.80
2011,07,07,05,19,7.00
2011,07,07,05,20,9.40
2011,07,07,05,21,10.30
2011,07,07,05,22,5.30
2011,07,07,05,23,9.10
2011,07,07,05,24,7.20
2011,07,07,05,25,4.60
2011,07,07,05,26,4.90
2011,07,07,05,27,6.70
2011,07,07,05,28,6.30
2011,07,07,05,29,7.70
2011,07,07,05,30,4.40
2011,07,07,05,31,5.60
2011,07,07,05,32,4.80
2011,07,07,05,33,4.00
2011,07,07,05,34,4.30
2011,07,07,05,35,7.30
2011,07,07,05,36,6.30
2011,07,07,05,37,3.10
2011,07,07,05,38,8.80
2011,07,07,05,39,5.30
2011,07,07,05,40,8.90
2011,07,07,05,41,11.80
2011,07,07,05,42,6.10
2011,07,07,05,43,4.30
2011,07,07,05,44,5.00
2011,07,07,05,45,8.00
2011,07,07,05,46,6.90
2011,07,07,05,47,5.50
2011,07,07,05,48,7.20
2011,07,07,05,49,8.10
2011,07,07,05,50,4.90
2011,07,07,05,51,8.70
2011,07,07,05,52,6.60
2011,07,07,05,53,6.50
2011,07,07,05,54,4.70
2011,07,07,05,55,5.60
2011,07,07,05,56,1.60
2011,07,07,05,57,4.30
2011,07,07,05,58,4.60
2011,07,07,05,59,1.80
2011,07,07,06,00,4.70
2011,07,07,06,01,0.80
2011,07,07,06,02,3.50
2011,07,07,06,03,2.40
2011,07,07,06,04,6.40
2011,07,07,06,05,7.20
2011,07,07,06,06,4.70
2011,07,07,06,07,7.60
2011,07,07,06,08,6.40
2011,07,07,06,09,8.20
2011,07,07,06,10,6.90
2011,07,07,06,11,2.80
2011,07,07,06,12,5.90
2011,07,07,06,13,5.10
2011,07,07,06,14,8.40
2011,07,07,06,15,9.40
2011,07,07,06,16,4.30
2011,07,07,06,17,3.00
2011,07,07,06,18,5.30
2011,07,07,06,19,4.00
2011,07,07,06,20,1.40
2011,07,07,06,21,4.00
2011,07,07,06,22,6.70
2011,07,07,06,23,2.10
2011,07,07,06,24,3.70
2011,07,07,06,25,6.00
2011,07,07,06,26,7.90
2011,07,07,06,27,3.90
2011,07,07,06,28,3.90
2011,07,07,06,29,2.40
2011,07,07,06,30,4.20
2011,07,07,06,31,4.60
2011,07,07,06,32,3.90
2011,07,07,06,33,10.80
2011,07,07,06,34,6.40
2011,07,07,06,35,8.50
2011,07,07,06,36,1.90
2011,07,07,06,37,3.20
2011,07,07,06,38,3.90
2011,07,07,06,39,8.50
2011,07,07,06,40,8.70
2011,07,07,06,41,2.10
2011,07,07,06,42,4.80
2011,07,07,06,43,9.40
2011,07,07,06,44,6.60
2011,07,07,06,45,4.50
2011,07,07,06,46,7.00
2011,07,07,06,47,8.20
2011,07,07,06,48,8.20
2011,07,07,06,49,10.00
2011,07,07,06,50,8.60
2011,07,07,06,51,10.60
2011,07,07,06,52,8.10
2011,07,07,06,53,6.20
2011,07,07,06,54,12.60
2011,07,07,06,55,5.60
2011,07,07,06,56,5.80
2011,07,07,06,57,13.40
2011,07,07,06,58,9.50
2011,07,07,06,59,5.40
2011,07,07,07,00,9.00
2011,07,07,07,01,8.10
2011,07,07,07,02,4.00
2011,07,07,07,03,8.10
2011,07,07,07,04,4.10
2011,07,07,07,05,6.20
2011,07,07,07,06,7.50
2011,07,07,07,07,9.10
2011,07,07,07,08,7.40
2011,07,07,07,09,5.30
2011,07,07,07,10,6.00
2011,07,07,07,11,2.00
2011,07,07,07,12,7.20
2011,07,07,07,13,4.60
2011,07,07,07,14,5.20
2011,07,07,07,15,6.90
2011,07,07,07,16,5.30
2011,07,07,07,17,6.30
2011,07,07,07,18,8.20
2011,07,07,07,19,4.30
2011,07,07,07,20,7.50
2011,07,07,07,21,5.20
2011,07,07,07,22,4.30
2011,07,07,07,23,7.20
2011,07,07,07,24,6.90
2011,07,07,07,25,6.60
2011,07,07,07,26,10.90
2011,07,07,07,27,7.40
2011,07,07,07,28,10.30
2011,07,07,07,29,9.30
2011,07,07,07,30,9.80
2011,07,07,07,31,8.80
2011,07,07,07,32,7.60
2011,07,07,07,33,6.80
2011,07,07,07,34,6.40
2011,07,07,07,35,13.10
2011,07,07,07,36,6.30
2011,07,07,07,37,5.60
2011,07,07,07,38,6.00
2011,07,07,07,39,3.70
2011,07,07,07,40,6.40
2011,07,07,07,41,7.20
2011,07,07,07,42,5.60
2011,07,07,07,43,11.10
2011,07,07,07,44,6.40
2011,07,07,07,45,6.10
2011,07,07,07,46,3.90
2011,07,07,07,47,5.80
2011,07,07,07,48,5.90
2011,07,07,07,49,6.80
2011,07,07,07,50,7.80
2011,07,07,07,51,8.30
2011,07,07,07,52,7.60
2011,07,07,07,53,7.50
2011,07,07,07,54,6.70
2011,07,07,07,55,6.70
2011,07,07,07,56,6.40
2011,07,07,07,57,8.30
2011,07,07,07,58,7.10
2011,07,07,07,59,7.80
2011,07,07,08,00,7.10
2011,07,07,08,01,6.60
2011,07,07,08,02,9.30
2011,07,07,08,03,6.40
2011,07,07,08,04,5.20
2011,07,07,08,05,6.50
2011,07,07,08,06,1.00
2011,07,07,08,07,2.50
2011,07,07,08,08,5.40
2011,07,07,08,09,3.50
2011,07,07,08,10,6.90
2011,07,07,08,11,4.90
2011,07,07,08,12,6.70
2011,07,07,08,13,7.30
2011,07,07,08,14,10.10
2011,07,07,08,15,11.40
2011,07,07,08,16,2.90
2011,07,07,08,17,6.40
2011,07,07,08,18,4.90
2011,07,07,08,19,1.60
2011,07,07,08,20,0.30
2011,07,07,08,21,1.30
2011,07,07,08,22,2.20
2011,07,07,08,23,2.30
2011,07,07,08,24,8.60
2011,07,07,08,25,7.70
2011,07,07,08,26,8.30
2011,07,07,08,27,3.90
2011,07,07,08,28,7.10
2011,07,07,08,29,7.80
2011,07,07,08,30,2.20
2011,07,07,08,31,3.00
2011,07,07,08,32,5.80
2011,07,07,08,33,8.60
2011,07,07,08,34,4.60
2011,07,07,08,35,3.50
2011,07,07,08,36,6.90
2011,07,07,08,37,3.80
2011,07,07,08,38,5.50
2011,07,07,08,39,2.50
2011,07,07,08,40,5.80
2011,07,07,08,41,7.90
2011,07,07,08,42,5.60
2011,07,07,08,43,4.70
2011,07,07,08,44,9.20
2011,07,07,08,45,6.80
2011,07,07,08,46,5.70
2011,07,07,08,47,6.40
2011,07,07,08,48,7.40
2011,07,07,08,49,13.90
2011,07,07,08,50,9.00
2011,07,07,08,51,10.60
2011,07,07,08,52,1.70
2011,07,07,08,53,8.30
2011,07,07,08,54,5.80
2011,07,07,08,55,3.60
2011,07,07,08,56,5.60
2011,07,07,08,57,3.90
2011,07,07,08,58,6.60
2011,07,07,08,59,4.40
2011,07,07,09,00,7.20
2011,07,07,09,01,11.30
2011,07,07,09,02,6.60
2011,07,07,09,03,15.20
2011,07,07,09,04,6.80
2011,07,07,09,05,3.60
2011,07,07,09,06,6.90
2011,07,07,09,07,7.70
2011,07,07,09,08,4.90
2011,07,07,09,09,5.60
2011,07,07,09,10,4.50
2011,07,07,09,11,9.50
2011,07,07,09,12,8.50
2011,07,07,09,13,9.90
2011,07,07,09,14,5.20
2011,07,07,09,15,6.00
2011,07,07,09,16,4.70
2011,07,07,09,17,10.80
2011,07,07,09,18,4.70
2011,07,07,09,19,3.00
2011,07,07,09,20,10.10
2011,07,07,09,21,9.70
2011,07,07,09,22,8.50
2011,07,07,09,23,7.40
2011,07,07,09,24,4.40
2011,07,07,09,25,6.90
2011,07,07,09,26,6.70
2011,07,07,09,27,6.40
2011,07,07,09,28,12.60
2011,07,07,09,29,13.00
2011,07,07,09,30,7.30
2011,07,07,09,31,6.40
2011,07,07,09,32,9.80
2011,07,07,09,33,10.90
2011,07,07,09,34,4.20
2011,07,07,09,35,7.10
2011,07,07,09,36,11.70
2011,07,07,09,37,12.60
2011,07,07,09,38,9.30
2011,07,07,09,39,5.80
2011,07,07,09,40,7.50
2011,07,07,09,41,12.50
2011,07,07,09,42,12.60
2011,07,07,09,43,11.40
2011,07,07,09,44,15.60
2011,07,07,09,45,15.10
2011,07,07,09,46,9.60
2011,07,07,09,47,11.60
2011,07,07,09,48,8.40
2011,07,07,09,49,15.40
2011,07,07,09,50,14.10
2011,07,07,09,51,11.80
2011,07,07,09,52,14.20
2011,07,07,09,53,8.90
2011,07,07,09,54,14.60
2011,07,07,09,55,12.60
2011,07,07,09,56,14.70
2011,07,07,09,57,12.70
2011,07,07,09,58,12.90
2011,07,07,09,59,9.30
2011,07,07,10,00,10.60
2011,07,07,10,01,13.00
2011,07,07,10,02,13.20
2011,07,07,10,03,9.30
2011,07,07,10,04,18.00
2011,07,07,10,05,11.60
2011,07,07,10,06,9.40
2011,07,07,10,07,9.20
2011,07,07,10,08,8.20
2011,07,07,10,09,11.30
2011,07,07,10,10,11.00
2011,07,07,10,11,11.00
2011,07,07,10,12,8.10
2011,07,07,10,13,8.60
2011,07,07,10,14,10.70
2011,07,07,10,15,7.20
2011,07,07,10,16,5.20
2011,07,07,10,17,12.70
2011,07,07,10,18,7.40
2011,07,07,10,19,6.60
2011,07,07,10,20,6.90
2011,07,07,10,21,18.70
2011,07,07,10,22,10.80
2011,07,07,10,23,15.00
2011,07,07,10,24,12.60
2011,07,07,10,25,16.40
2011,07,07,10,26,12.10
2011,07,07,10,27,3.50
2011,07,07,10,28,5.30
2011,07,07,10,29,6.40
2011,07,07,10,30,11.70
2011,07,07,10,31,8.30
2011,07,07,10,32,10.40
2011,07,07,10,33,12.00
2011,07,07,10,34,6.20
2011,07,07,10,35,11.80
2011,07,07,10,36,12.70
2011,07,07,10,37,9.80
2011,07,07,10,38,6.90
2011,07,07,10,39,10.20
2011,07,07,10,40,10.00
2011,07,07,10,41,11.50
2011,07,07,10,42,7.10
2011,07,07,10,43,7.40
2011,07,07,10,44,4.70
2011,07,07,10,45,6.10
2011,07,07,10,46,3.50
2011,07,07,10,47,8.90
2011,07,07,10,48,11.40
2011,07,07,10,49,12.00
2011,07,07,10,50,12.40
2011,07,07,10,51,10.50
2011,07,07,10,52,4.60
2011,07,07,10,53,13.30
2011,07,07,10,54,9.70
2011,07,07,10,55,3.20
2011,07,07,10,56,9.20
2011,07,07,10,57,13.00
2011,07,07,10,58,17.00
2011,07,07,10,59,10.20
2011,07,07,11,00,8.80
2011,07,07,11,01,12.30
2011,07,07,11,02,12.40
2011,07,07,11,03,12.00
2011,07,07,11,04,6.90
2011,07,07,11,05,13.00
2011,07,07,11,06,14.50
2011,07,07,11,07,18.30
2011,07,07,11,08,13.10
2011,07,07,11,09,23.20
2011,07,07,11,10,18.70
2011,07,07,11,11,16.00
2011,07,07,11,12,14.80
2011,07,07,11,13,18.70
2011,07,07,11,14,10.10
2011,07,07,11,15,8.20
2011,07,07,11,16,13.00
2011,07,07,11,17,10.30
2011,07,07,11,18,17.20
2011,07,07,11,19,15.20
2011,07,07,11,20,15.70
2011,07,07,11,21,17.40
2011,07,07,11,22,18.10
2011,07,07,11,23,16.30
2011,07,07,11,24,19.70
2011,07,07,11,25,18.00
2011,07,07,11,26,17.80
2011,07,07,11,27,16.20
2011,07,07,11,28,11.40
2011,07,07,11,29,12.90
2011,07,07,11,30,11.00
2011,07,07,11,31,15.00
2011,07,07,11,32,7.00
2011,07,07,11,33,13.00
2011,07,07,11,34,12.30
2011,07,07,11,35,10.50
2011,07,07,11,36,20.30
2011,07,07,11,37,26.20
2011,07,07,11,38,21.60
2011,07,07,11,39,14.30
2011,07,07,11,40,20.10
2011,07,07,11,41,17.50
2011,07,07,11,42,20.80
2011,07,07,11,43,17.90
2011,07,07,11,44,10.40
2011,07,07,11,45,17.60
2011,07,07,11,46,15.20
2011,07,07,11,47,17.80
2011,07,07,11,48,11.90
2011,07,07,11,49,13.00
2011,07,07,11,50,16.20
2011,07,07,11,51,12.60
2011,07,07,11,52,18.70
2011,07,07,11,53,10.60
2011,07,07,11,54,12.70
2011,07,07,11,55,11.40
2011,07,07,11,56,15.00
2011,07,07,11,57,14.90
2011,07,07,11,58,16.70
2011,07,07,11,59,12.00
2011,07,07,12,00,9.30
2011,07,07,12,01,10.10
2011,07,07,12,02,11.70
2011,07,07,12,03,12.20
2011,07,07,12,04,16.30
2011,07,07,12,05,12.60
2011,07,07,12,06,9.00
2011,07,07,12,07,17.20
2011,07,07,12,08,11.40
2011,07,07,12,09,10.10
2011,07,07,12,10,10.90
2011,07,07,12,11,8.70
2011,07,07,12,12,15.30
2011,07,07,12,13,12.50
2011,07,07,12,14,21.70
2011,07,07,12,15,25.80
2011,07,07,12,16,18.60
2011,07,07,12,17,16.80
2011,07,07,12,18,20.50
2011,07,07,12,19,17.40
2011,07,07,12,20,14.50
2011,07,07,12,21,16.90
2011,07,07,12,22,14.70
2011,07,07,12,23,16.30
2011,07,07,12,24,15.40
2011,07,07,12,25,14.30
2011,07,07,12,26,16.00
2011,07,07,12,27,22.90
2011,07,07,12,28,14.60
2011,07,07,12,29,16.30
2011,07,07,12,30,11.00
2011,07,07,12,31,18.00
2011,07,07,12,32,12.60
2011,07,07,12,33,11.30
2011,07,07,12,34,14.50
2011,07,07,12,35,20.00
2011,07,07,12,36,16.70
2011,07,07,12,37,13.80
2011,07,07,12,38,15.70
2011,07,07,12,39,20.40
2011,07,07,12,40,25.50
2011,07,07,12,41,16.60
2011,07,07,12,42,16.30
2011,07,07,12,43,22.00
2011,07,07,12,44,20.90
2011,07,07,12,45,17.40
2011,07,07,12,46,15.60
2011,07,07,12,47,18.30
2011,07,07,12,48,15.90
2011,07,07,12,49,15.90
2011,07,07,12,50,9.20
2011,07,07,12,51,14.40
2011,07,07,12,52,12.10
2011,07,07,12,53,12.00
2011,07,07,12,54,8.90
2011,07,07,12,55,14.60
2011,07,07,12,56,14.50
2011,07,07,12,57,10.30
2011,07,07,12,58,13.40
2011,07,07,12,59,16.10
2011,07,07,13,00,17.50
2011,07,07,13,01,18.90
2011,07,07,13,02,16.60
2011,07,07,13,03,14.60
2011,07,07,13,04,16.20
2011,07,07,13,05,17.40
2011,07,07,13,06,13.20
2011,07,07,13,07,10.80
2011,07,07,13,08,16.40
2011,07,07,13,09,12.50
2011,07,07,13,10,16.00
2011,07,07,13,11,16.70
2011,07,07,13,12,14.70
2011,07,07,13,13,18.50
2011,07,07,13,14,19.10
2011,07,07,13,15,18.80
2011,07,07,13,16,14.10
2011,07,07,13,17,18.00
2011,07,07,13,18,12.50
2011,07,07,13,19,25.70
2011,07,07,13,20,17.80
2011,07,07,13,21,14.90
2011,07,07,13,22,12.40
2011,07,07,13,23,19.30
2011,07,07,13,24,21.10
2011,07,07,13,25,15.50
2011,07,07,13,26,6.40
2011,07,07,13,27,16.40
2011,07,07,13,28,21.10
2011,07,07,13,29,18.40
2011,07,07,13,30,11.30
2011,07,07,13,31,19.10
2011,07,07,13,32,13.40
2011,07,07,13,33,21.30
2011,07,07,13,34,18.50
2011,07,07,13,35,13.10
2011,07,07,13,36,20.40
2011,07,07,13,37,27.40
2011,07,07,13,38,22.20
2011,07,07,13,39,16.90
2011,07,07,13,40,14.30
2011,07,07,13,41,17.00
2011,07,07,13,42,16.90
2011,07,07,13,43,14.50
2011,07,07,13,44,27.30
2011,07,07,13,45,27.00
2011,07,07,13,46,24.50
2011,07,07,13,47,26.90
2011,07,07,13,48,13.40
2011,07,07,13,49,17.10
2011,07,07,13,50,14.10
2011,07,07,13,51,19.30
2011,07,07,13,52,14.00
2011,07,07,13,53,19.30
2011,07,07,13,54,18.80
2011,07,07,13,55,16.90
2011,07,07,13,56,11.80
2011,07,07,13,57,14.60
2011,07,07,13,58,15.00
2011,07,07,13,59,17.00
2011,07,07,14,00,22.40
2011,07,07,14,01,21.90
2011,07,07,14,02,21.60
2011,07,07,14,03,14.80
2011,07,07,14,04,22.10
2011,07,07,14,05,16.00
2011,07,07,14,06,19.60
2011,07,07,14,07,14.10
2011,07,07,14,08,17.50
2011,07,07,14,09,14.40
2011,07,07,14,10,11.00
2011,07,07,14,11,13.00
2011,07,07,14,12,15.10
2011,07,07,14,13,17.10
2011,07,07,14,14,24.00
2011,07,07,14,15,14.10
2011,07,07,14,16,18.50
2011,07,07,14,17,11.70
2011,07,07,14,18,15.40
2011,07,07,14,19,14.90
2011,07,07,14,20,16.40
2011,07,07,14,21,17.70
2011,07,07,14,22,16.60
2011,07,07,14,23,11.90
2011,07,07,14,24,19.30
2011,07,07,14,25,24.70
2011,07,07,14,26,24.10
2011,07,07,14,27,23.20
2011,07,07,14,28,19.40
2011,07,07,14,29,15.70
2011,07,07,14,30,16.90
2011,07,07,14,31,17.50
2011,07,07,14,32,17.30
2011,07,07,14,33,17.60
2011,07,07,14,34,21.20
2011,07,07,14,35,14.10
2011,07,07,14,36,13.90
2011,07,07,14,37,13.90
2011,07,07,14,38,18.10
2011,07,07,14,39,18.90
2011,07,07,14,40,15.90
2011,07,07,14,41,9.10
2011,07,07,14,42,10.10
2011,07,07,14,43,11.70
2011,07,07,14,44,19.90
2011,07,07,14,45,22.70
2011,07,07,14,46,19.10
2011,07,07,14,47,24.90
2011,07,07,14,48,23.90
2011,07,07,14,49,21.40
2011,07,07,14,50,25.80
2011,07,07,14,51,13.00
2011,07,07,14,52,16.80
2011,07,07,14,53,13.60
2011,07,07,14,54,25.00
2011,07,07,14,55,15.90
2011,07,07,14,56,26.60
2011,07,07,14,57,21.90
2011,07,07,14,58,25.20
2011,07,07,14,59,25.30
2011,07,07,15,00,15.60
2011,07,07,15,01,15.40
2011,07,07,15,02,19.70
2011,07,07,15,03,28.50
2011,07,07,15,04,25.90
2011,07,07,15,05,14.60
2011,07,07,15,06,25.10
2011,07,07,15,07,27.70
2011,07,07,15,08,20.40
2011,07,07,15,09,29.70
2011,07,07,15,10,32.90
2011,07,07,15,11,19.30
2011,07,07,15,12,22.40
2011,07,07,15,13,30.70
2011,07,07,15,14,24.20
2011,07,07,15,15,29.60
2011,07,07,15,16,22.90
2011,07,07,15,17,21.10
2011,07,07,15,18,18.10
2011,07,07,15,19,24.30
2011,07,07,15,20,24.20
2011,07,07,15,21,12.30
2011,07,07,15,22,23.90
2011,07,07,15,23,28.60
2011,07,07,15,24,25.00
2011,07,07,15,25,24.80
2011,07,07,15,26,28.00
2011,07,07,15,27,30.80
2011,07,07,15,28,22.10
2011,07,07,15,29,19.10
2011,07,07,15,30,23.00
2011,07,07,15,31,24.40
2011,07,07,15,32,24.30
2011,07,07,15,33,31.80
2011,07,07,15,34,25.00
2011,07,07,15,35,23.90
2011,07,07,15,36,22.70
2011,07,07,15,37,22.50
2011,07,07,15,38,22.40
2011,07,07,15,39,23.30
2011,07,07,15,40,20.10
2011,07,07,15,41,21.50
2011,07,07,15,42,21.60
2011,07,07,15,43,23.30
2011,07,07,15,44,26.00
2011,07,07,15,45,26.80
2011,07,07,15,46,23.90
2011,07,07,15,47,29.00
2011,07,07,15,48,26.70
2011,07,07,15,49,19.20
2011,07,07,15,50,26.80
2011,07,07,15,51,19.50
2011,07,07,15,52,20.20
2011,07,07,15,53,17.80
2011,07,07,15,54,20.50
2011,07,07,15,55,24.90
2011,07,07,15,56,29.40
2011,07,07,15,57,23.30
2011,07,07,15,58,29.60
2011,07,07,15,59,33.80
2011,07,07,16,00,27.20
2011,07,07,16,01,24.60
2011,07,07,16,02,26.90
2011,07,07,16,03,21.80
2011,07,07,16,04,16.40
2011,07,07,16,05,24.10
2011,07,07,16,06,24.80
2011,07,07,16,07,22.70
2011,07,07,16,08,22.30
2011,07,07,16,09,20.80
2011,07,07,16,10,21.30
2011,07,07,16,11,30.30
2011,07,07,16,12,16.50
2011,07,07,16,13,22.80
2011,07,07,16,14,21.10
2011,07,07,16,15,21.60
2011,07,07,16,16,17.80
2011,07,07,16,17,21.40
2011,07,07,16,18,16.70
2011,07,07,16,19,24.10
2011,07,07,16,20,25.20
2011,07,07,16,21,24.10
2011,07,07,16,22,28.40
2011,07,07,16,23,18.00
2011,07,07,16,24,19.70
2011,07,07,16,25,16.30
2011,07,07,16,26,18.90
2011,07,07,16,27,20.20
2011,07,07,16,28,18.90
2011,07,07,16,29,14.10
2011,07,07,16,30,7.10
2011,07,07,16,31,19.80
2011,07,07,16,32,13.80
2011,07,07,16,33,24.50
2011,07,07,16,34,17.40
2011,07,07,16,35,16.00
2011,07,07,16,36,21.60
2011,07,07,16,37,21.00
2011,07,07,16,38,17.30
2011,07,07,16,39,10.30
2011,07,07,16,40,10.70
2011,07,07,16,41,14.40
2011,07,07,16,42,9.80
2011,07,07,16,43,13.50
2011,07,07,16,44,18.30
2011,07,07,16,45,24.70
2011,07,07,16,46,26.40
2011,07,07,16,47,22.70
2011,07,07,16,48,16.90
2011,07,07,16,49,24.00
2011,07,07,16,50,23.90
2011,07,07,16,51,18.30
2011,07,07,16,52,12.30
2011,07,07,16,53,14.40
2011,07,07,16,54,10.90
2011,07,07,16,55,16.10
2011,07,07,16,56,17.50
2011,07,07,16,57,29.90
2011,07,07,16,58,20.00
2011,07,07,16,59,25.90
2011,07,07,17,00,22.40
2011,07,07,17,01,26.10
2011,07,07,17,02,19.50
2011,07,07,17,03,16.10
2011,07,07,17,04,18.30
2011,07,07,17,05,26.20
2011,07,07,17,06,15.80
2011,07,07,17,07,14.60
2011,07,07,17,08,22.70
2011,07,07,17,09,22.20
2011,07,07,17,10,23.40
2011,07,07,17,11,18.30
2011,07,07,17,12,28.90
2011,07,07,17,13,19.00
2011,07,07,17,14,16.30
2011,07,07,17,15,14.20
2011,07,07,17,16,19.60
2011,07,07,17,17,21.00
2011,07,07,17,18,17.50
2011,07,07,17,19,21.80
2011,07,07,17,20,16.60
2011,07,07,17,21,16.90
2011,07,07,17,22,27.00
2011,07,07,17,23,20.60
2011,07,07,17,24,23.10
2011,07,07,17,25,26.60
2011,07,07,17,26,19.60
2011,07,07,17,27,15.60
2011,07,07,17,28,16.90
2011,07,07,17,29,21.70
2011,07,07,17,30,25.70
2011,07,07,17,31,19.40
2011,07,07,17,32,18.60
2011,07,07,17,33,22.10
2011,07,07,17,34,21.60
2011,07,07,17,35,16.10
2011,07,07,17,36,24.00
2011,07,07,17,37,22.50
2011,07,07,17,38,19.30
2011,07,07,17,39,21.20
2011,07,07,17,40,21.20
2011,07,07,17,41,19.90
2011,07,07,17,42,19.90
2011,07,07,17,43,16.10
2011,07,07,17,44,15.20
2011,07,07,17,45,12.00